TimeMDT,TemperatureF,Dew PointF,Humidity,Sea Level PressureIn,VisibilityMPH,Wind Direction,Wind SpeedMPH,Gust SpeedMPH,PrecipitationIn,Events,Conditions,WindDirDegrees,DateUTC
12:55 AM,48.0,46.9,96,29.62,9.0,Calm,Calm,-,N/A,,Mostly Cloudy,0,2011-10-05 06:55:00
1:23 AM,46.4,44.6,93,29.61,1.8,Calm,Calm,-,N/A,,Clear,0,2011-10-05 07:23:00
1:28 AM,46.4,46.4,100,29.61,0.8,Calm,Calm,-,N/A,,Clear,0,2011-10-05 07:28:00
1:45 AM,46.4,46.4,100,29.61,0.8,Calm,Calm,-,N/A,,Mist,0,2011-10-05 07:45:00
1:49 AM,46.4,44.6,93,29.61,1.2,Calm,Calm,-,N/A,,Clear,0,2011-10-05 07:49:00
1:55 AM,44.1,44.1,100,29.61,0.8,Calm,Calm,-,N/A,,Mist,0,2011-10-05 07:55:00
2:02 AM,46.4,46.4,100,29.61,1.0,WNW,3.5,-,N/A,,Clear,300,2011-10-05 08:02:00
2:05 AM,46.4,46.4,100,29.60,2.0,Calm,Calm,-,N/A,,Clear,0,2011-10-05 08:05:00
2:19 AM,44.6,44.6,100,29.61,1.2,West,4.6,-,N/A,,Clear,280,2011-10-05 08:19:00
2:27 AM,44.6,44.6,100,29.61,2.0,Calm,Calm,-,N/A,,Clear,0,2011-10-05 08:27:00
2:35 AM,42.8,42.8,100,29.60,8.0,Calm,Calm,-,N/A,,Clear,0,2011-10-05 08:35:00
2:43 AM,42.8,42.8,100,29.60,1.8,Calm,Calm,-,N/A,,Partly Cloudy,0,2011-10-05 08:43:00
2:48 AM,44.6,42.8,93,29.60,1.0,Calm,Calm,-,N/A,,Mist,0,2011-10-05 08:48:00
2:55 AM,43.0,43.0,100,29.61,1.0,Calm,Calm,-,N/A,,Mist,0,2011-10-05 08:55:00
3:05 AM,42.8,42.8,100,29.60,0.5,Calm,Calm,-,N/A,Fog,Fog,0,2011-10-05 09:05:00
3:13 AM,42.8,42.8,100,29.60,0.2,Calm,Calm,-,N/A,Fog,Fog,0,2011-10-05 09:13:00
3:26 AM,41.0,41.0,100,29.59,0.5,Calm,Calm,-,N/A,Fog,Fog,0,2011-10-05 09:26:00
3:37 AM,41.0,39.2,93,29.58,0.5,North,3.5,-,N/A,Fog,Fog,10,2011-10-05 09:37:00
3:55 AM,41.0,41.0,100,29.58,0.5,Calm,Calm,-,N/A,Fog,Fog,0,2011-10-05 09:55:00
4:15 AM,41.0,41.0,100,29.57,1.2,North,3.5,-,N/A,,Mostly Cloudy,350,2011-10-05 10:15:00
4:19 AM,41.0,41.0,100,29.57,2.0,Calm,Calm,-,N/A,,Scattered Clouds,0,2011-10-05 10:19:00
4:28 AM,42.8,41.0,93,29.57,1.2,WNW,3.5,-,N/A,,Scattered Clouds,300,2011-10-05 10:28:00
4:34 AM,42.8,42.8,100,29.57,0.8,West,3.5,-,N/A,,Mist,260,2011-10-05 10:34:00
4:47 AM,44.6,42.8,93,29.56,1.2,Calm,Calm,-,N/A,,Scattered Clouds,0,2011-10-05 10:47:00
4:50 AM,44.6,44.6,100,29.56,2.5,WNW,3.5,-,N/A,,Scattered Clouds,300,2011-10-05 10:50:00
4:55 AM,44.1,43.0,96,29.57,7.0,WNW,4.6,-,N/A,,Scattered Clouds,290,2011-10-05 10:55:00
5:55 AM,43.0,42.1,97,29.57,9.0,North,3.5,-,N/A,,Partly Cloudy,360,2011-10-05 11:55:00
6:55 AM,44.6,44.6,100,29.56,10.0,WSW,3.5,-,N/A,Rain,Light Rain,250,2011-10-05 12:55:00
7:55 AM,46.0,45.0,96,29.55,10.0,North,6.9,-,0.00,,Overcast,350,2011-10-05 13:55:00
8:55 AM,46.9,45.0,93,29.54,10.0,NNW,4.6,-,N/A,,Overcast,340,2011-10-05 14:55:00
9:55 AM,48.0,46.0,93,29.53,10.0,North,6.9,-,0.00,,Overcast,350,2011-10-05 15:55:00
10:55 AM,50.0,46.0,86,29.51,10.0,NNW,5.8,-,N/A,,Overcast,340,2011-10-05 16:55:00
11:55 AM,48.9,46.0,90,29.50,10.0,NNW,4.6,-,0.01,Rain,Light Rain,330,2011-10-05 17:55:00
12:55 PM,50.0,46.9,89,29.51,10.0,North,4.6,-,0.01,Rain,Light Rain,350,2011-10-05 18:55:00
1:08 PM,48.2,46.4,93,29.49,8.0,North,8.1,-,0.01,Rain,Light Rain,360,2011-10-05 19:08:00
1:43 PM,48.2,46.4,93,29.49,10.0,NNW,6.9,-,0.03,Rain,Light Rain,340,2011-10-05 19:43:00
1:55 PM,50.0,46.9,89,29.49,10.0,NNW,4.6,-,0.03,,Overcast,340,2011-10-05 19:55:00
2:55 PM,53.6,48.2,82,29.46,10.0,NW,4.6,-,N/A,,Mostly Cloudy,310,2011-10-05 20:55:00
3:55 PM,54.0,48.0,80,29.44,10.0,North,10.4,-,N/A,,Clear,350,2011-10-05 21:55:00
4:55 PM,54.0,48.0,80,29.43,10.0,NNW,5.8,-,N/A,,Overcast,340,2011-10-05 22:55:00
5:55 PM,52.0,46.0,80,29.42,10.0,NW,8.1,-,N/A,,Mostly Cloudy,320,2011-10-05 23:55:00
6:55 PM,54.0,46.9,77,29.42,6.0,North,15.0,26.5,0.02,Rain,Light Rain,360,2011-10-06 00:55:00
7:55 PM,48.2,46.4,93,29.47,10.0,West,12.7,-,N/A,Rain,Light Rain,270,2011-10-06 01:55:00
8:15 PM,48.2,46.4,93,29.49,4.0,WNW,3.5,-,0.06,Rain,Rain,290,2011-10-06 02:15:00
8:27 PM,48.2,46.4,93,29.51,7.0,SE,4.6,-,0.08,Rain,Light Rain,130,2011-10-06 02:27:00
8:47 PM,48.2,46.4,93,29.51,6.0,Calm,Calm,-,0.12,Rain,Rain,0,2011-10-06 02:47:00
8:55 PM,48.0,46.9,96,29.53,5.0,Calm,Calm,-,0.14,Rain,Rain,0,2011-10-06 02:55:00
9:55 PM,48.0,46.9,96,29.54,6.0,North,3.5,-,0.14,Rain,Rain,350,2011-10-06 03:55:00
10:21 PM,48.2,46.4,93,29.53,9.0,NNW,5.8,-,0.01,Rain,Light Rain,340,2011-10-06 04:21:00
10:55 PM,48.0,46.0,93,29.53,10.0,NNW,5.8,-,0.03,Rain,Light Rain,330,2011-10-06 04:55:00
11:21 PM,46.4,46.4,100,29.53,10.0,NW,4.6,-,0.00,Rain,Light Rain,310,2011-10-06 05:21:00
11:33 PM,46.4,46.4,100,29.52,10.0,Calm,Calm,-,N/A,,Overcast,0,2011-10-06 05:33:00
11:55 PM,48.0,46.0,93,29.53,10.0,Variable,3.5,-,0.00,,Overcast,0,2011-10-06 05:55:00